Location: Gradaro
(45.0833°N, 10.8833°E)
Time: 10:11:06
(UTC+00:00)

ERS-2 - Pass Details

Date: 29 November 2020
Orbit: 492 x 498 km, 98.6° (Epoch: 23 January)

Event Time Altitude Azimuth Distance (km) Brightness Sun altitude
Rises 04:16:01 0° 172° (S) 2,562 5.9 -23.5°
Reaches altitude 10° 04:18:06 10° 175° (S) 1,686 4.9 -23.1°
Enters shadow 04:19:43 25° 182° (S) 1,040 3.7 -22.9°
